Regional Weather Roundup
Issued by NWS

Home | Current Version | Previous Version | Text Only | Print | Product List | Glossary On
Versions: 1 2 3 4 5 6 7 8 9 10 11 12 13 14 15 16 17 18 19 20 21 22 23 24 25 26 27 28 29 30 31 32 33 34 35 36 37 38 39 40 41 42 43 44 45 46 47 48 49 50
000
ASUS43 KLSX 260707
RWRMO

WEATHER SUMMARY FOR MISSOURI
NATIONAL WEATHER SERVICE SPRINGFIELD MO
100 AM CST FRI DEC 26 2014

NOTE: "FAIR" INDICATES FEW OR NO CLOUDS BELOW 12,000 FEET WITH NO
       SIGNIFICANT WEATHER AND/OR OBSTRUCTIONS TO VISIBILITY.
       CURRENT SKY AND/OR WEATHER CONDITIONS ARE NOT AVAILABLE FOR
       CHILLICOTHE AND FARMINGTON.

MOZ001>031-035>038-043-044-053-054-260800-
...NORTHERN AND WESTERN MISSOURI...

CITY           SKY/WX    TMP DP  RH WIND       PRES   REMARKS
KANSAS CTY INT PTCLDY    45  31  58 S17       29.80S
KANSAS C DTWN  PTCLDY    48  30  49 S8        29.82R
LEE`S SUMMIT   MOCLDY    46  30  53 S13       29.83R
ST JOSEPH      PTCLDY    45  32  60 S10       29.79R
CHILLICOTHE      N/A     41  30  65 SE7       29.85S
KIRKSVILLE     PTCLDY    35  31  85 S12       29.88S WCI  27

$$
MOZ066>068-077>081-088>096-101>105-260800-
...SOUTHWEST MISSOURI...

CITY           SKY/WX    TMP DP  RH WIND       PRES   REMARKS
SPRINGFIELD    MOCLDY    44  31  60 S16       29.92R
JOPLIN         PTCLDY    48  31  51 S22       29.89S

$$
MOZ032>034-039>042-045>050-055>058-069>072-260800-
...CENTRAL MISSOURI...

CITY           SKY/WX    TMP DP  RH WIND       PRES   REMARKS
COLUMBIA       PTCLDY    43  32  65 S14       29.92S
JEFFERSON CITY PTCLDY    44  32  62 SE8       29.95S
ROLLA          CLEAR     42  34  73 S15       29.95R
SEDALIA        PTCLDY    45  31  58 S13       29.88S
WHITEMAN AFB   MOCLDY    45  31  58 S17       29.86R
WARRENSBURG    MOCLDY    45  32  61 S13       29.85S
OSAGE BEACH    PTCLDY    45  30  57 S9        29.93S

$$
MOZ051-052-059>065-260800-
...EAST CENTRAL MISSOURI...

CITY           SKY/WX    TMP DP  RH WIND       PRES   REMARKS
ST LOUIS INTL  PTCLDY    43  34  70 SE6       30.02S
SPIRIT OF STL  CLEAR     43  34  70 CALM      30.00R
ST CHARLES     CLEAR     36  34  92 E10       30.01S WCI  28

$$
MOZ072>076-082>087-097>100-106>115-260800-
...SOUTH CENTRAL AND SOUTHEAST MISSOURI...

CITY           SKY/WX    TMP DP  RH WIND       PRES   REMARKS
CAPE GIRARDEAU PTCLDY    41  35  79 S12       30.11S
FARMINGTON     MOCLDY    43  36  75 SE13G18   30.05R
POPLAR BLUFF   CLEAR     41  33  73 S7        30.10R
WEST PLAINS    PTCLDY    39  34  82 S6        30.02S

$$



USA.gov is the U.S. government's official web portal to all federal, state and local government web resources and services.